TimeCST,TemperatureF,Dew PointF,Humidity,Sea Level PressureIn,VisibilityMPH,Wind Direction,Wind SpeedMPH,Gust SpeedMPH,PrecipitationIn,Events,Conditions,WindDirDegrees,DateUTC
1:52 AM,30.0,18.0,61,30.09,10.0,NW,19.6,28.8,N/A,,Overcast,320,2013-03-05 07:52:00
2:52 AM,28.9,18.0,64,30.08,10.0,WNW,18.4,23.0,N/A,,Scattered Clouds,300,2013-03-05 08:52:00
3:52 AM,28.0,16.0,61,30.09,10.0,NW,19.6,33.4,N/A,,Overcast,320,2013-03-05 09:52:00
4:52 AM,26.1,15.1,63,30.11,10.0,NW,16.1,-,N/A,,Clear,310,2013-03-05 10:52:00
5:52 AM,26.1,15.1,63,30.12,10.0,WNW,15.0,-,N/A,,Mostly Cloudy,290,2013-03-05 11:52:00
6:11 AM,26.6,15.8,64,30.09,10.0,WNW,13.8,-,N/A,,Overcast,290,2013-03-05 12:11:00
6:52 AM,27.0,16.0,63,30.12,10.0,WNW,15.0,20.7,N/A,,Overcast,290,2013-03-05 12:52:00
7:52 AM,28.0,18.0,66,30.13,10.0,NW,21.9,35.7,N/A,,Overcast,310,2013-03-05 13:52:00
8:52 AM,28.9,19.0,67,30.14,10.0,WNW,21.9,35.7,N/A,,Mostly Cloudy,300,2013-03-05 14:52:00
9:52 AM,28.9,19.9,69,30.15,10.0,NW,33.4,41.4,N/A,,Overcast,310,2013-03-05 15:52:00
10:52 AM,30.0,19.9,66,30.17,10.0,NW,29.9,38.0,N/A,,Overcast,320,2013-03-05 16:52:00
11:52 AM,30.0,19.9,66,30.19,10.0,NW,26.5,36.8,0.00,Snow,Light Snow,320,2013-03-05 17:52:00
12:52 PM,30.0,19.9,66,30.22,9.0,NW,27.6,38.0,0.00,Snow,Light Snow,320,2013-03-05 18:52:00
1:52 PM,30.0,19.0,64,30.24,9.0,NW,27.6,38.0,0.00,Snow,Light Snow,310,2013-03-05 19:52:00
2:52 PM,30.0,18.0,61,30.26,9.0,NNW,26.5,34.5,0.00,Snow,Light Snow,330,2013-03-05 20:52:00
3:25 PM,30.2,17.6,60,30.24,9.0,NW,28.8,39.1,0.00,Snow,Light Snow,320,2013-03-05 21:25:00
3:52 PM,30.0,17.1,59,30.29,9.0,NW,31.1,36.8,0.00,Snow,Light Snow,320,2013-03-05 21:52:00
4:52 PM,30.0,18.0,61,30.31,10.0,NNW,19.6,33.4,0.00,,Overcast,340,2013-03-05 22:52:00
5:52 PM,28.9,17.1,61,30.33,10.0,NNW,24.2,28.8,N/A,,Overcast,330,2013-03-05 23:52:00
6:52 PM,28.0,17.1,63,30.35,10.0,NNW,16.1,-,N/A,,Overcast,340,2013-03-06 00:52:00
7:52 PM,27.0,17.1,66,30.37,10.0,NNW,20.7,27.6,N/A,,Overcast,340,2013-03-06 01:52:00
8:52 PM,26.1,17.1,69,30.39,10.0,North,19.6,26.5,N/A,,Overcast,350,2013-03-06 02:52:00
9:52 PM,25.0,17.1,72,30.41,10.0,NNW,12.7,-,0.00,Snow,Light Snow,340,2013-03-06 03:52:00
10:52 PM,25.0,16.0,69,30.42,10.0,NNW,16.1,-,0.00,,Overcast,330,2013-03-06 04:52:00
11:52 PM,25.0,16.0,69,30.43,10.0,NNW,15.0,-,N/A,,Overcast,330,2013-03-06 05:52:00